sat.trackr.live / text

‹ back to catalog

STARLINK-32879

NORAD 62957 · 2025-029K

PAYLOAD ACTIVE UNKNOWN

§ Identity

Operator
Country
US
Launch date
2025-02-11
Launch site
AFWTR
Launch vehicle
Mass (kg)
RCS (m²)

Purposes: comms

External: N2YO · Heavens-Above · Gunter

§ Orbital elements

Epoch: 2026-05-24T18:05:01.025376Z

Period
94.01 min
Inclination
53.1589°
Eccentricity
0.0000814
Mean motion
15.31708940 rev/d
Perigee alt
470.2 km
Apogee alt
471.3 km
Semi-major
6,848.9 km
B*
6.2613e-4
RAAN
239.1264°
Arg perigee
60.6012°
Mean anomaly
299.5071°
Rev number
7,296

§ Raw data

STARLINK-328791 62957U 25029K   26144.75348409  .00019120  00000+0  62613-3 0  99972 62957  53.1589 239.1264 0000814  60.6012 299.5071 15.31708940 72962

JSON: /api/v1/satellites/62957 · /tle

For live sub-satellite position, see the globe view (requires WebGL).

§ Visibility from observer

Set your observer location to see the next 7 days of passes ≥ 10°. The values pass through the URL so the page stays shareable.

No JS? Fill the form by hand. The geolocation button needs JavaScript.